#timestamp,LO_Frequency,Hit,StdDev 
1643187615.9,286047000.9,P
1643187635.7,286046998.1,P
1643187655.5,286046998.2,N
1643187675.4,286046998.4,N
1643187695.2,286046998.6,N
1643187715.0,286047000.7,N
1643187715.9,286047000.7,N
1643187735.8,286046999.1,N
1643187755.6,286046998.9,N
1643187775.5,286047000.8,N
1643187795.3,286047000.4,N
1643187815.1,286046998.7,N
1643187835.9,286046999.2,N
1643187855.7,286046996.9,N
1643187875.5,286046996.8,N
1643187895.4,286046998.0,N
1643187915.2,286046995.4,Y
1643187935.1,286046996.9,P
1643187936.0,286046996.9,N
1643187955.8,286046998.9,N
1643187975.6,286047001.2,N
1643187995.5,286047001.2,N
1643188015.3,286046996.5,N
1643188035.2,286046996.8,N
1643188055.9,286046998.6,N
1643188075.7,286046999.6,N
1643188095.6,286046999.3,N
1643188115.4,286046998.9,N
1643188135.2,286046998.9,N
1643188155.1,286046998.9,N
1643188156.0,286046998.9,N
1643188175.8,286046998.3,N
1643188195.7,286046998.6,N
1643188215.5,286046998.9,N
1643188235.3,286047001.0,N
1643188255.2,286047001.1,N
1643188275.0,286046998.5,N
1643188275.9,286046998.5,N
1643188295.8,286046998.2,N
1643188315.6,286046998.1,N
1643188335.4,286047000.8,N
1643188355.3,286046998.1,N
1643188375.1,286047000.5,N
1643188395.9,286046998.6,N
1643188415.7,286047000.9,N
1643188435.5,286047000.9,N
1643188455.4,286046998.2,N
1643188475.2,286047000.6,N
1643188495.0,286047000.8,N
1643188495.9,286047000.8,N
1643188515.8,286046998.5,N
1643188535.6,286046998.5,N
1643188555.5,286046998.3,N
1643188575.3,286046999.0,N
1643188595.1,286046998.4,N
1643188615.9,286047001.1,N
1643188635.7,286046999.0,N
1643188655.5,286046998.5,N
1643188675.4,286046999.5,N
1643188695.2,286046998.7,N
1643188715.1,286046999.3,N
1643188716.0,286046999.3,N
1643188735.8,286046999.2,N
1643188755.6,286046999.4,N
1643188775.5,286046996.5,Y
1643188795.3,286046999.2,P
1643188815.1,286046998.4,P
1643188835.9,286046999.5,N
1643188855.7,286046996.5,Y
1643188875.6,286046998.8,P
1643188895.4,286046998.3,P
1643188915.2,286046996.8,P
1643188935.1,286046997.0,Y
1643188936.0,286046997.0,P
1643188955.8,286047000.3,N
1643188975.7,286047002.1,N
1643188995.5,286047002.6,N
1643189015.3,286047002.2,N
1643189035.2,286047003.1,N
1643189055.9,286047001.9,N
1643189075.7,286047001.4,N
1643189095.6,286047001.8,N
1643189115.4,286047003.7,N
1643189135.3,286047005.6,N
1643189155.1,286047003.0,N
1643189156.0,286047003.0,N
1643189175.8,286047005.2,N
1643189195.7,286047003.1,N
1643189215.5,286047003.7,N
1643189235.4,286047003.9,N
1643189285.2,286047003.3,E
1643189295.1,286047003.7,N
1643189315.9,286047000.8,P
1643189335.7,286046998.6,N
1643189355.6,286047002.3,N
1643189375.4,286047002.5,N
1643189395.2,286047001.0,N
1643189415.1,286047003.9,N
1643189416.0,286047003.9,N
1643189435.8,286046999.7,N
1643189455.6,286046999.8,N
1643189475.5,286047000.2,N
1643189495.3,286047000.2,N
1643189515.2,286047000.7,N
1643189535.0,286047002.2,N
1643189535.9,286047002.2,N
1643189555.7,286047001.6,N
1643189575.6,286047001.9,N
1643189595.4,286046999.9,N
1643189615.3,286047001.0,N
1643189635.1,286046998.1,N
1643189636.0,286046998.1,N
1643189655.8,286047001.2,N
1643189675.1,286047000.5,N
1643189676.0,286047000.5,N
1643189695.8,286046998.1,N
1643189715.7,286046998.1,N
1643189735.5,286046998.8,N
1643189755.3,286046998.8,N
1643189775.2,286047001.2,N
1643189795.0,286047000.8,N
1643189795.9,286047000.8,N
1643189815.7,286047000.0,N
1643189835.6,286047002.6,N
1643189855.4,286047002.3,N
1643189875.3,286047000.1,N
1643189895.1,286047000.4,N
1643189896.0,286047000.4,N
1643189915.8,286047000.2,N
1643189935.7,286047001.0,N
1643189955.5,286046998.6,N
1643189975.3,286047000.8,N
1643189995.2,286047000.8,N
1643190015.0,286046999.3,N
1643190015.9,286046999.3,N
1643190035.8,286046998.4,N
1643190055.6,286046998.2,N
1643190075.4,286046998.2,N
1643190095.3,286046998.5,N
1643190115.1,286047000.1,N
1643190135.9,286047002.5,N
1643190155.7,286047000.4,N
1643190175.5,286047002.3,N
1643190195.4,286047001.7,N
1643190215.2,286047002.5,N
1643190235.1,286047000.2,N
1643190236.0,286047000.2,N
1643190255.8,286047004.0,Y
1643190275.7,286047002.2,P
1643190295.5,286047002.0,N
1643190315.3,286047001.0,N
1643190335.2,286047002.8,Y
1643190355.0,286046998.1,P
1643190355.9,286046998.1,N
1643190375.8,286046999.0,N
1643190395.6,286046999.3,N
1643190415.4,286046996.5,N
1643190435.3,286046995.3,Y
1643190455.1,286046998.8,P
1643190475.8,286046998.8,P
1643190495.7,286047001.2,P
1643190515.5,286047001.0,N
1643190535.4,286047001.2,N
1643190555.2,286047000.2,N
1643190575.0,286047000.4,N
1643190576.0,286047000.4,N
1643190595.8,286046998.8,N
1643190615.6,286046998.6,N
1643190635.5,286047001.9,N
1643190655.3,286047002.4,N
1643190675.2,286047002.5,N
1643190695.9,286047002.3,N
1643190715.7,286047000.4,N
1643190735.6,286047000.7,N
1643190755.4,286047001.1,N
1643190775.2,286046998.5,N
1643190795.1,286047001.0,N
1643190796.0,286047001.0,N
1643190815.8,286047000.6,N
1643190835.7,286046998.3,N
1643190855.5,286046998.6,N
1643190875.3,286046999.3,N
1643190895.2,286046999.3,N
1643190915.0,286046999.0,N
1643190915.9,286046999.0,N
1643190935.7,286046999.6,N
1643190955.6,286046998.4,N
1643190975.4,286046998.8,N
1643190995.3,286046999.3,N
1643191015.1,286047001.1,N
1643191035.8,286046999.9,N
1643191055.7,286046998.7,N
1643191075.5,286046999.6,N
1643191095.4,286047000.7,N
1643191115.2,286047001.1,N
1643191135.0,286046998.7,N
1643191135.9,286046998.7,N
1643191155.8,286046999.5,N
1643191175.6,286046999.6,N
1643191195.5,286046999.5,N
